Theta_e
353 353 353 353 353 356 354 354 355 355 357 356 357 359 359 356 357 360 358 356 357 355 352 353 352 351 353 354 354 354 352 353 354 352 355 356 349 345 344 343 340 341 343 342 340 337 336 331 326 324 324 325 324 325 331 336 338 340 339 341 344 346 347 347 346 346 345 346 346 346 346 346 346 346 344 343 343 342 343 344 343 344 344 345 343 342 343 345 345 343 340 338 338 339 340 341 342
355 355 356 356 357 357 354 353 358 358 355 354 357 360 359 356 358 361 358 357 356 352 351 351 351 351 350 351 351 352 353 353 353 352 354 351 348 348 346 346 341 339 341 339 336 333 334 329 325 324 324 324 324 325 327 331 333 334 335 338 343 346 348 347 347 346 345 345 346 346 345 344 343 342 341 341 342 342 342 342 343 344 344 344 342 342 344 346 346 344 341 339 340 340 339 340 340
357 357 358 359 358 355 354 354 358 356 354 353 355 359 358 358 359 359 358 356 354 352 352 351 351 350 349 351 349 353 354 354 353 351 354 351 348 350 349 348 341 338 338 334 333 330 329 327 324 324 323 324 324 326 326 329 331 331 333 336 340 345 348 348 346 344 342 342 343 342 341 340 339 338 337 338 339 339 338 339 340 341 342 342 342 342 345 346 347 346 344 343 342 342 342 342 341
359 359 360 359 356 356 356 358 360 358 356 354 354 358 357 358 357 356 355 353 353 352 353 351 351 349 349 351 349 351 353 354 354 351 353 350 345 349 351 348 341 337 335 331 330 327 326 326 324 324 323 324 325 326 327 329 331 331 332 333 335 339 342 343 341 338 337 337 337 337 336 336 336 336 336 336 336 337 337 338 338 339 340 341 341 343 345 347 347 347 346 346 345 345 346 345 344
359 360 360 359 358 359 360 361 363 359 357 357 357 358 356 356 355 354 354 351 352 353 352 351 349 347 348 348 347 351 352 353 354 352 351 348 346 348 351 347 339 337 333 329 327 325 325 325 324 323 324 325 326 327 328 329 331 332 332 333 333 334 336 336 335 335 334 334 333 334 334 333 333 334 333 333 333 333 335 336 337 339 340 341 342 343 345 346 346 347 346 347 346 346 347 347 347
358 359 359 359 356 356 362 360 359 359 359 360 360 360 357 356 354 354 353 350 352 351 350 348 345 345 346 346 347 350 351 351 354 352 349 347 348 348 348 344 338 336 331 328 325 324 325 324 323 324 325 326 327 327 327 329 330 331 331 332 333 332 332 332 332 332 330 329 329 328 328 328 328 328 327 327 327 327 330 333 336 338 341 341 342 343 345 346 346 346 346 346 346 346 346 346 347
357 358 358 358 356 357 363 359 357 360 358 357 358 357 356 357 354 354 355 351 352 348 344 344 342 345 346 346 348 349 349 351 351 350 346 348 349 348 346 342 337 333 329 327 324 325 325 323 324 325 326 327 327 326 326 326 327 327 328 328 329 328 327 327 326 326 326 326 326 327 327 328 328 328 327 327 326 326 326 329 334 338 340 341 342 344 344 345 346 346 346 346 346 346 346 346 347
358 358 357 360 363 363 363 359 359 360 358 355 355 355 353 355 352 354 356 350 352 344 341 343 341 345 346 346 348 349 349 351 350 348 347 349 349 347 347 341 334 331 327 325 324 325 323 323 325 326 327 327 326 324 324 323 323 324 324 324 325 324 324 324 325 325 327 328 330 331 332 332 332 331 331 330 328 327 326 328 331 336 339 340 342 343 344 345 346 346 346 346 345 346 346 346 346
357 357 356 360 366 363 360 360 359 358 357 355 354 355 353 353 351 354 358 353 351 342 342 344 342 345 345 344 348 349 351 351 349 348 348 349 347 346 344 337 330 327 325 324 324 324 322 324 326 326 327 326 325 323 323 323 324 323 324 324 325 326 326 327 327 328 330 332 334 335 335 336 335 335 333 332 331 329 328 327 328 333 337 340 341 343 344 345 346 346 346 346 346 346 345 346 346
357 357 358 364 366 359 357 360 359 358 356 355 355 355 352 353 352 351 358 359 352 342 341 342 342 344 343 344 347 351 352 350 350 351 351 349 344 339 337 331 327 325 325 324 324 322 323 325 326 326 326 325 324 323 323 323 324 325 325 326 326 327 327 326 327 328 331 333 334 336 336 338 337 337 335 334 333 331 330 328 327 329 334 338 341 342 345 346 346 346 346 345 345 345 344 344 345
358 356 358 366 365 358 358 359 357 357 355 355 357 354 353 352 351 351 355 359 353 344 342 342 342 341 342 344 347 352 351 350 351 352 352 349 341 332 330 328 325 324 324 323 322 321 323 324 325 325 324 324 324 324 324 325 325 326 325 326 326 326 325 325 326 328 330 332 333 334 335 337 338 339 338 338 337 335 333 331 329 328 329 334 339 341 344 345 346 345 346 345 344 345 344 344 344
360 358 363 367 363 360 361 360 356 357 356 357 358 354 353 350 353 358 356 358 355 348 345 343 342 342 344 346 350 352 351 352 351 352 353 347 339 330 327 327 325 324 324 323 321 322 323 324 324 324 324 323 323 324 325 325 324 324 324 324 324 324 323 324 325 327 328 329 331 332 335 337 339 339 340 340 340 338 336 336 335 333 328 328 334 339 341 344 345 346 345 345 345 345 346 346 345
360 362 371 364 359 365 363 360 356 357 360 361 359 353 352 352 354 357 354 357 356 354 349 342 342 343 346 347 350 352 352 352 352 352 351 345 336 329 326 326 325 325 324 323 321 322 323 323 324 324 323 323 324 325 325 323 322 322 322 322 322 322 323 324 326 327 327 326 328 330 334 337 339 340 340 340 340 340 339 339 339 339 334 329 330 333 339 342 344 345 345 345 346 347 348 348 348
357 359 369 362 359 370 365 361 359 362 367 360 355 353 353 354 353 352 353 358 357 355 351 341 342 343 345 347 349 351 352 352 351 350 348 343 335 329 327 326 325 325 325 323 321 322 323 323 323 323 323 324 325 325 324 322 322 322 322 322 322 322 323 324 326 326 326 326 328 331 334 337 339 340 340 339 340 341 341 341 341 340 338 335 331 329 333 339 343 343 344 345 346 347 348 349 349
354 353 367 369 364 366 362 362 361 366 370 359 354 353 353 354 353 352 353 358 356 354 350 341 344 348 346 347 348 350 351 350 349 348 347 344 340 336 335 332 328 325 326 325 322 322 322 323 323 323 324 325 326 324 323 322 322 322 322 322 322 323 323 323 324 326 326 325 328 332 335 337 338 338 339 340 341 344 345 344 343 341 338 337 333 329 328 333 339 341 342 343 345 347 348 349 349
356 355 368 371 362 360 360 358 356 365 368 358 355 353 356 355 353 353 353 356 355 353 351 346 347 349 345 344 347 348 349 349 348 348 348 347 346 346 344 340 332 326 327 326 323 322 322 322 323 324 325 326 325 323 322 322 322 322 322 322 322 323 323 323 323 325 325 325 328 331 333 335 335 336 339 341 342 345 346 345 345 344 341 338 334 330 327 328 335 338 340 342 344 345 348 349 348
356 360 368 363 359 359 359 356 356 365 365 357 354 354 360 358 353 354 353 354 355 354 352 351 348 344 342 343 347 347 347 348 348 349 349 349 350 351 350 346 334 326 327 326 324 322 322 322 323 325 327 327 325 322 322 322 322 322 322 322 322 323 322 323 323 323 324 324 329 331 330 331 333 335 338 340 341 344 345 345 346 348 347 343 339 335 328 325 331 336 339 340 343 344 346 349 349
359 367 368 358 360 362 361 361 357 360 363 356 355 355 359 358 354 354 355 355 355 354 352 351 350 346 343 343 345 345 346 349 349 350 350 350 351 352 353 349 336 326 326 327 325 324 321 322 323 326 327 327 324 322 322 322 322 323 322 322 322 322 322 322 322 323 322 323 328 331 329 330 331 334 334 336 340 344 346 345 346 350 351 348 347 342 331 326 333 339 341 342 344 347 348 349 349
361 365 366 361 362 361 359 361 355 356 360 355 355 355 356 357 354 354 359 359 355 358 355 352 352 349 343 342 345 343 344 349 350 350 351 350 351 351 352 350 339 327 326 327 326 324 323 323 324 327 328 326 323 322 322 322 323 322 322 322 322 322 322 322 322 322 323 322 325 329 329 328 329 331 332 334 339 343 343 342 343 348 352 351 351 349 337 332 341 345 345 346 347 348 348 349 348
363 359 367 366 359 359 356 357 356 355 357 355 356 356 354 355 353 355 360 358 358 361 358 354 352 344 339 342 343 341 343 347 350 350 349 348 348 349 350 350 342 330 326 327 327 325 325 324 326 327 327 325 323 322 322 322 322 322 323 322 322 322 322 322 322 322 322 322 323 324 327 326 327 330 334 337 339 341 340 339 340 345 352 352 352 352 345 341 345 348 349 349 348 348 347 348 348
363 361 369 364 355 361 357 354 358 356 355 356 357 356 356 354 354 356 358 361 361 359 354 354 352 341 337 341 341 340 341 343 347 350 348 347 346 347 348 348 344 336 328 327 328 326 326 326 327 328 327 325 323 323 322 322 322 322 322 323 322 322 322 322 322 322 322 322 322 322 323 325 328 332 336 338 342 341 340 340 339 341 348 351 352 352 351 348 347 347 348 348 349 349 348 347 348
361 359 360 357 356 364 357 352 356 356 355 355 357 358 356 354 355 355 357 361 361 356 353 352 353 346 337 338 340 339 340 339 343 347 348 347 345 345 347 346 346 342 333 328 327 327 327 327 328 329 327 325 323 323 322 322 322 322 322 322 323 322 322 322 322 322 322 321 322 322 323 324 329 334 335 339 343 343 342 342 339 338 341 346 349 350 351 351 350 347 347 348 348 348 347 346 347
358 356 352 353 356 361 357 352 355 356 355 355 356 356 353 355 357 355 355 356 354 352 353 351 353 352 342 337 338 338 338 337 339 345 347 347 345 344 345 346 346 345 341 334 329 326 327 327 328 328 327 325 323 323 323 322 322 322 322 322 323 322 322 323 323 323 323 324 323 323 323 323 327 330 334 338 342 344 344 342 339 338 339 342 345 346 348 351 351 349 348 348 347 347 346 345 346
357 359 354 355 354 355 355 352 354 355 354 354 356 355 354 358 358 355 355 356 352 352 353 351 352 354 349 342 339 338 337 335 337 343 345 346 345 344 343 344 345 345 344 342 336 331 328 326 327 327 326 324 322 323 323 323 322 322 322 322 322 322 323 324 326 327 328 328 327 324 323 323 323 327 332 337 340 343 344 343 341 340 340 343 344 344 348 351 351 350 350 350 347 348 348 348 347
355 359 354 354 354 352 354 353 354 355 353 353 355 355 355 357 356 354 357 355 350 352 355 354 353 354 353 349 346 344 341 335 336 340 343 344 343 342 342 342 345 345 344 345 342 339 333 328 327 326 325 324 323 323 323 323 323 322 322 322 323 322 324 328 329 330 330 331 330 327 326 327 324 324 331 337 339 341 343 344 343 341 340 340 344 346 349 350 351 352 351 350 349 349 350 350 348
350 355 354 355 355 353 357 355 353 355 354 355 357 358 356 354 356 356 357 354 350 352 355 355 354 353 353 352 351 352 347 340 339 340 341 343 343 342 342 343 344 346 344 344 344 342 340 336 333 329 326 324 323 323 324 324 323 323 322 322 323 322 324 329 330 330 329 330 331 332 333 336 334 330 334 338 339 339 340 342 343 343 339 336 340 345 348 349 350 352 352 350 349 350 351 351 350
347 351 354 356 355 356 358 356 354 354 355 355 359 363 359 355 360 361 357 353 351 352 354 354 354 353 351 352 351 352 351 347 347 345 339 340 343 342 342 344 344 345 345 345 344 343 342 340 338 338 336 330 326 324 324 324 324 323 322 323 322 323 325 327 327 327 327 327 328 330 331 336 339 338 338 338 339 338 337 339 341 341 337 334 336 341 346 347 348 349 349 349 348 348 348 350 351
349 352 358 358 356 357 358 357 355 355 358 355 358 364 360 355 362 362 355 354 353 351 354 353 354 353 351 352 352 351 352 350 350 350 344 339 341 342 341 343 344 345 345 344 344 344 343 341 340 342 343 339 334 330 328 325 324 323 324 325 325 324 326 327 326 325 324 325 326 326 327 330 333 337 339 337 337 336 335 336 338 335 334 336 334 337 343 346 346 345 344 348 348 347 348 348 349
350 352 361 363 360 361 359 359 357 356 359 355 355 361 361 360 361 359 355 355 356 353 353 353 353 354 351 351 352 351 351 351 350 351 349 342 340 343 342 342 343 344 345 345 344 344 343 343 342 343 344 344 341 338 336 332 328 326 325 326 328 328 327 327 326 325 324 323 325 325 326 327 330 333 335 334 335 337 338 338 339 336 334 337 334 334 341 342 343 343 343 345 345 348 349 348 348
351 350 359 363 361 362 360 359 357 356 356 354 357 359 359 363 360 355 355 356 356 353 353 352 352 353 352 352 352 351 351 351 350 350 349 345 343 343 343 345 346 344 345 345 345 345 344 343 342 344 345 345 343 341 340 338 336 333 329 327 329 331 330 329 327 326 325 323 323 324 325 327 329 332 332 335 339 341 342 343 345 343 337 333 331 332 338 341 342 343 343 342 343 348 350 349 349
355 351 357 363 359 359 360 358 358 357 355 355 361 359 358 363 358 354 356 356 355 353 353 353 352 352 352 352 352 351 350 350 351 349 348 347 346 345 345 347 348 346 345 345 345 345 344 343 343 344 344 344 343 344 342 341 340 339 337 334 333 333 332 330 328 327 326 324 324 325 325 327 328 332 336 339 342 341 342 344 346 346 340 334 331 333 338 341 343 343 343 343 343 347 350 350 350
355 353 351 357 357 357 361 361 357 358 359 356 358 357 356 361 356 353 356 355 353 353 355 354 352 352 351 351 352 351 351 350 350 350 349 348 349 348 347 348 349 347 346 345 345 345 344 343 343 343 343 343 343 344 343 343 342 341 341 340 337 336 335 333 331 329 326 325 326 328 327 327 330 335 341 342 342 342 342 343 345 346 344 341 337 335 337 341 342 342 343 344 344 347 351 350 349
351 356 351 351 353 356 362 363 355 357 362 359 357 357 357 358 354 353 355 355 353 353 355 354 353 353 351 352 352 351 351 350 351 350 350 349 349 350 349 349 349 348 346 345 344 345 344 343 342 343 342 342 343 343 343 344 343 342 342 342 340 340 339 338 335 332 329 328 330 331 330 330 332 336 340 341 341 342 342 343 344 345 346 344 340 335 336 339 340 341 344 344 343 348 352 352 350
339 351 354 351 350 354 361 363 356 357 361 361 360 358 356 356 352 352 354 354 354 353 354 356 355 354 353 352 351 351 351 350 351 351 350 351 350 349 350 349 348 348 346 344 344 344 343 342 343 342 342 342 342 341 342 343 343 342 342 342 342 342 341 341 339 336 333 333 336 337 335 335 335 337 339 340 340 340 341 344 345 345 347 345 341 337 338 340 341 343 346 344 343 345 349 353 352
332 342 351 349 348 353 357 358 356 361 362 363 361 355 354 355 352 352 353 353 354 353 354 355 355 353 353 352 352 352 351 350 350 350 350 350 350 349 348 349 348 346 345 345 343 344 343 342 342 343 343 341 341 341 341 342 343 343 343 343 343 342 343 343 341 339 337 338 341 341 340 339 339 341 341 341 341 341 342 344 345 345 347 347 342 338 339 340 342 345 346 345 345 343 346 352 353
332 342 349 347 347 352 355 354 355 358 360 363 362 354 354 355 352 353 352 352 353 353 354 354 354 353 353 352 352 353 352 351 349 349 350 349 350 351 348 348 347 345 345 345 343 342 342 342 343 343 342 341 341 341 341 343 343 343 344 344 343 343 344 344 343 342 341 341 343 343 343 342 343 343 343 343 342 343 344 345 346 345 346 348 343 337 339 341 343 347 346 346 347 344 346 351 352
332 344 350 346 348 350 352 352 355 356 356 360 360 354 353 354 352 353 352 351 352 353 353 355 355 354 353 352 354 353 354 353 350 349 351 351 351 351 349 348 348 346 346 347 344 342 342 343 343 343 343 342 341 341 341 342 343 343 344 344 344 345 344 344 344 344 343 343 343 344 344 343 343 343 343 343 343 344 346 347 347 346 346 348 344 336 337 341 344 348 349 348 348 346 347 349 350
331 344 348 344 345 350 350 349 353 354 352 355 354 352 352 353 352 352 352 351 352 353 354 355 356 355 354 353 354 354 354 354 354 353 353 352 351 350 349 348 348 347 347 347 347 346 344 343 343 343 342 341 341 341 341 341 341 342 342 343 344 344 345 345 344 345 345 344 344 343 343 343 342 341 341 342 345 346 347 347 347 346 346 348 347 341 337 339 344 347 348 348 347 346 345 346 348
328 336 343 343 344 344 342 345 352 351 350 351 350 350 352 352 352 351 352 353 352 352 355 356 356 355 355 355 356 355 355 356 356 355 353 350 350 350 349 348 346 347 348 348 347 347 347 345 342 342 342 341 341 340 340 340 341 341 342 342 344 345 345 345 345 346 346 346 345 345 344 343 340 339 339 339 341 343 344 344 344 344 345 346 349 347 340 336 341 345 347 347 346 345 344 343 346
327 328 333 339 340 335 334 340 350 348 347 350 349 348 351 352 352 352 351 352 352 354 355 356 356 356 356 356 356 357 355 356 356 355 353 350 350 350 350 348 346 345 347 347 347 346 346 345 342 342 342 341 341 340 340 341 342 342 342 344 345 345 346 346 346 347 347 347 347 347 346 345 342 340 339 339 339 339 341 343 343 344 346 345 348 351 345 336 337 342 344 346 345 343 342 342 343
329 327 329 335 337 333 334 339 344 342 341 348 349 343 344 351 354 356 354 352 353 354 355 356 355 355 356 355 355 357 355 355 355 354 353 352 350 350 349 348 348 347 345 345 347 346 344 344 342 341 342 341 341 341 341 341 342 342 344 345 346 347 347 347 347 348 348 347 347 347 347 346 345 342 341 340 341 342 344 346 348 348 348 348 349 352 350 340 335 338 340 343 346 345 345 344 343
326 328 330 334 335 335 336 337 336 332 331 341 344 337 337 347 353 355 356 356 356 354 353 354 355 355 356 356 356 356 355 354 353 351 351 353 351 351 351 349 350 349 346 343 344 344 343 343 341 341 341 341 342 342 343 343 344 344 345 346 347 346 346 346 346 346 347 347 347 347 347 347 346 344 343 343 343 345 346 348 351 351 350 349 351 353 352 347 339 336 336 341 347 348 346 346 344
322 329 332 331 333 335 337 336 330 326 330 339 342 337 335 340 346 354 356 358 358 355 354 354 354 354 354 356 356 354 354 353 352 349 348 351 349 349 349 348 350 350 348 346 345 345 343 343 343 343 343 343 343 342 343 344 345 347 348 348 348 347 347 347 346 347 347 347 348 348 348 348 347 346 345 345 346 346 348 349 351 351 351 351 352 353 354 351 344 338 337 341 345 346 347 347 347
325 334 333 332 333 330 334 334 330 330 333 336 337 338 336 335 343 353 354 357 358 356 356 355 353 353 353 355 354 352 351 351 352 350 347 348 347 347 347 346 346 347 347 347 347 346 345 345 345 345 346 346 346 345 344 343 343 345 345 346 346 346 346 346 346 347 348 348 349 350 351 350 350 350 348 348 348 348 349 350 351 351 351 352 353 353 354 354 350 343 340 341 345 348 348 348 348
332 335 332 332 331 330 333 331 329 333 331 328 331 336 338 337 344 352 353 356 357 356 356 354 352 352 352 354 352 351 350 351 352 350 347 347 347 348 348 348 348 347 346 346 347 347 348 348 348 349 350 348 348 348 347 345 343 343 343 343 344 345 346 348 349 349 349 350 351 352 352 353 353 353 352 351 350 350 350 350 351 352 351 350 353 354 353 353 352 348 343 344 348 349 349 348 349
333 331 331 332 331 332 329 327 332 331 326 324 326 336 344 341 344 347 349 352 354 355 353 350 350 351 353 353 352 352 352 351 352 350 349 349 348 348 349 348 350 350 350 349 349 350 350 350 350 351 351 350 349 350 349 348 347 346 347 347 350 352 354 355 354 354 353 352 351 351 351 352 352 353 353 353 352 351 350 350 351 351 351 350 351 354 353 351 351 350 347 345 348 350 350 348 349
331 330 332 331 336 336 330 342 346 328 326 332 327 334 348 344 344 346 346 351 351 351 351 348 348 350 352 353 352 353 352 351 350 349 350 350 349 349 350 350 349 350 351 351 351 351 351 350 350 350 351 351 351 351 351 350 349 350 351 353 355 356 357 357 358 357 357 355 354 352 351 350 351 352 353 353 353 353 351 351 351 352 352 351 351 352 352 351 350 350 349 348 348 349 350 349 350
329 334 334 327 337 339 326 336 340 321 326 339 331 333 340 338 343 346 344 348 347 348 350 350 349 349 351 353 351 352 351 349 348 349 350 351 350 351 351 351 351 351 351 351 350 350 349 348 348 348 348 349 350 350 351 350 350 351 352 355 356 357 357 358 357 357 357 357 356 355 354 352 352 352 352 353 353 353 353 352 352 352 352 351 350 351 351 351 350 350 350 349 348 348 349 350 350
331 332 330 323 327 331 323 325 329 324 329 335 331 335 336 338 347 346 344 346 344 346 347 347 349 348 349 351 350 349 349 348 348 348 349 348 350 352 352 351 351 350 348 348 348 346 345 346 346 344 344 346 348 349 350 350 350 352 354 357 358 358 357 356 356 356 355 356 356 356 356 356 355 354 354 354 354 353 354 354 353 353 352 351 350 350 350 350 351 351 351 350 348 347 348 349 349
330 327 328 325 323 324 324 326 327 328 331 330 333 338 337 342 349 345 346 345 342 346 346 346 349 347 348 349 348 348 347 347 347 345 346 345 347 350 350 350 349 346 344 344 346 346 344 344 344 346 345 345 346 347 349 350 352 355 357 358 358 358 358 357 356 356 355 355 355 356 356 356 357 356 356 355 355 355 355 355 355 354 353 352 351 351 350 351 351 351 351 351 350 348 347 347 348
331 331 333 329 326 325 324 326 326 327 330 329 335 341 338 341 348 345 344 342 343 346 346 347 349 347 348 347 347 347 347 347 346 344 345 345 344 346 347 347 345 343 341 343 346 345 344 345 346 347 347 347 347 349 350 353 354 356 358 359 359 358 357 357 356 356 355 354 354 355 354 354 355 355 355 354 354 355 356 356 356 356 355 353 353 352 351 352 352 351 352 352 351 350 348 347 347
331 334 330 324 329 333 327 328 329 327 328 330 335 340 341 344 347 346 344 344 346 347 346 348 348 346 348 346 345 348 347 346 345 344 346 345 343 345 345 344 342 341 341 343 345 344 345 345 346 345 345 346 347 349 351 352 353 353 355 356 356 355 354 354 353 353 353 353 353 352 352 353 354 354 354 355 355 355 355 356 356 356 356 355 353 353 352 352 352 352 352 352 352 351 350 348 346
334 329 325 325 330 335 328 326 331 327 325 330 335 338 339 343 347 346 348 350 349 348 346 348 348 347 347 345 344 346 346 345 344 344 346 345 344 343 343 343 341 340 342 344 345 344 344 344 344 345 345 345 346 347 348 348 348 348 348 350 350 350 349 347 347 348 350 352 352 352 353 353 354 355 355 355 356 356 356 356 357 357 357 356 355 353 352 352 352 351 352 351 352 352 351 348 348
333 326 327 331 330 334 330 324 328 328 321 325 334 336 336 340 344 347 350 351 349 349 348 346 346 346 345 345 345 345 345 344 342 344 345 344 344 343 343 343 342 343 344 344 343 344 344 344 344 344 345 345 345 344 345 346 346 346 347 348 347 345 342 339 341 344 347 349 350 351 353 353 353 354 354 353 354 355 355 356 357 357 357 357 356 355 353 352 351 351 351 350 351 353 351 350 348
333 329 332 331 324 328 328 322 324 324 320 326 334 335 336 339 341 345 349 350 350 351 349 346 345 344 342 343 344 344 344 344 343 344 344 343 344 344 343 343 344 343 344 344 344 344 344 343 342 342 342 342 342 343 344 345 346 346 344 341 339 337 337 338 339 341 341 343 344 344 347 349 349 348 348 348 349 351 352 353 355 357 358 358 357 356 355 354 352 351 351 350 350 351 352 351 349
332 331 333 333 328 326 325 324 324 321 322 331 333 332 339 348 349 346 347 350 350 350 350 348 342 341 342 342 343 344 343 343 343 343 343 343 344 344 344 343 344 343 343 343 343 343 343 343 343 342 341 339 340 341 339 338 337 337 334 332 333 336 338 340 340 339 340 340 340 341 341 342 343 343 343 345 347 349 351 352 355 357 357 358 358 357 356 355 354 351 351 350 350 350 351 351 351
329 330 328 330 332 328 326 325 324 323 325 331 335 335 344 360 358 347 346 348 348 349 350 348 341 339 342 343 343 344 343 343 345 343 343 343 344 344 343 342 343 342 342 343 343 343 343 341 338 336 333 332 332 330 328 328 329 329 329 330 333 337 338 339 340 341 341 340 340 340 341 342 342 342 344 345 347 348 349 350 352 353 353 354 355 356 357 357 355 354 352 351 351 352 351 350 350
331 332 327 328 331 327 324 323 324 328 326 330 342 343 346 361 358 346 347 347 345 344 346 347 343 340 343 345 343 344 344 344 344 342 342 342 342 343 342 341 341 340 341 340 340 338 335 332 329 328 328 329 328 326 325 326 327 326 327 329 331 335 338 340 341 341 340 339 339 339 340 342 343 343 344 345 346 348 348 348 349 350 352 352 353 354 356 356 356 355 355 353 353 353 352 350 350
Wind_Speed
15 16 15 13 12 10 11 10 3 1 1 1 2 1 1 1 3 2 4 7 3 4 12 13 17 21 9 3 9 3 6 9 6 5 3 9 26 34 32 30 29 29 27 25 25 23 21 20 18 18 17 17 16 15 15 16 15 15 15 16 16 15 15 14 13 12 11 10 10 10 9 8 8 7 7 7 7 7 8 8 8 7 7 7 8 9 9 9 9 9 9 9 8 7 6 5 4
12 13 12 9 10 8 7 6 1 1 2 1 1 1 2 2 3 3 5 6 6 11 19 23 22 20 10 8 10 3 6 3 7 8 12 24 35 34 31 28 29 29 27 26 25 23 21 19 18 18 17 17 16 16 15 15 15 15 15 16 16 15 14 13 13 12 11 10 10 10 9 8 8 7 7 6 6 6 7 8 8 8 7 8 9 10 10 10 10 10 10 10 10 8 7 6 5
10 10 10 8 8 8 5 3 1 2 2 1 0 1 1 3 4 4 6 6 8 17 21 23 22 19 12 8 7 3 5 1 10 20 24 33 37 33 29 26 29 27 26 26 24 23 22 20 18 18 18 17 17 16 16 15 15 14 15 15 14 14 13 13 13 12 11 10 9 9 8 8 7 7 6 5 4 4 6 7 8 8 7 8 9 10 10 10 10 10 11 11 10 9 8 7 6
8 7 6 6 8 6 4 2 1 2 2 2 1 2 0 3 4 6 9 9 6 15 21 20 17 19 16 9 7 6 7 8 19 28 32 36 35 34 29 27 29 27 26 26 25 23 21 20 18 19 18 18 17 16 16 15 14 14 14 14 13 13 13 12 12 11 10 9 9 8 7 6 6 5 5 5 4 4 5 6 8 8 7 8 9 10 10 10 10 10 11 11 10 10 9 8 6
5 5 6 6 5 3 2 2 1 2 2 3 3 3 2 1 4 8 11 10 5 10 23 23 11 13 17 11 9 9 12 16 19 26 36 35 31 32 29 29 30 27 27 25 24 23 21 20 19 20 19 18 17 16 16 15 14 13 13 13 12 12 11 11 10 10 9 8 8 7 6 5 4 4 4 4 4 4 5 6 7 7 7 8 9 10 10 10 10 9 9 9 9 8 8 7 6
4 5 6 6 3 2 2 1 2 1 1 0 2 2 2 2 2 3 15 20 12 12 20 21 13 13 10 6 6 13 20 22 20 26 37 35 31 31 30 30 30 28 27 25 24 22 21 20 20 20 19 18 17 16 16 15 15 14 13 12 12 11 10 10 10 9 8 7 6 6 6 5 4 4 4 4 4 4 5 6 6 7 7 8 8 9 10 10 9 8 8 8 7 7 6 6 5
3 4 6 4 2 2 2 2 2 1 2 4 3 4 4 4 4 3 8 15 10 9 16 19 19 15 7 10 12 13 16 20 26 31 35 34 31 31 30 31 30 29 27 25 24 22 21 20 21 20 19 18 17 16 15 15 15 14 13 12 12 11 10 10 9 8 8 7 7 7 7 7 6 5 4 4 4 4 5 6 6 7 8 8 8 9 9 9 9 8 8 7 7 6 6 5 5
1 2 4 3 1 1 2 2 1 1 4 4 4 5 5 5 6 3 3 3 7 5 18 20 23 16 6 13 13 12 13 16 28 33 32 32 30 30 30 31 31 29 27 25 24 22 21 21 21 21 20 18 17 16 15 15 14 14 13 12 12 11 10 10 9 8 8 9 9 9 9 9 8 7 5 4 4 4 4 5 6 6 7 8 8 8 8 8 8 8 8 7 7 6 6 5 4
1 2 3 1 2 2 2 1 1 3 4 3 2 2 5 8 6 3 1 3 6 8 17 19 23 16 9 15 16 18 16 15 26 30 29 29 28 30 31 32 31 30 27 25 24 23 22 22 21 21 19 18 17 16 16 15 14 14 13 13 12 12 11 11 10 9 10 11 11 11 10 9 9 8 7 6 6 5 5 5 6 6 6 7 8 8 7 7 7 7 7 7 7 6 6 5 4
2 2 1 1 3 3 2 2 2 3 3 1 1 1 4 8 9 2 3 3 3 11 17 19 21 19 16 15 16 21 20 20 26 27 26 26 28 31 32 31 29 29 27 26 24 23 23 22 22 21 19 19 18 17 16 15 14 14 13 13 13 13 12 12 11 11 11 11 11 11 11 10 10 9 8 8 8 7 7 6 5 5 5 6 7 7 7 7 6 7 7 7 6 6 5 4 4
2 1 1 2 3 3 2 3 4 3 1 2 1 2 5 8 10 5 4 3 2 13 18 18 16 20 18 12 17 24 24 24 26 27 25 25 29 31 32 31 28 27 26 26 24 24 24 23 22 20 19 19 18 17 16 15 15 14 14 13 13 13 12 12 12 11 11 11 11 11 10 11 10 10 10 9 9 8 8 7 6 5 5 5 6 6 7 6 6 6 6 6 5 5 4 4 4
2 1 2 3 2 1 1 4 5 2 2 2 1 1 6 9 6 2 2 4 4 12 13 12 14 20 13 9 21 28 28 27 27 28 25 25 28 30 30 30 27 26 25 25 24 24 24 23 22 20 19 18 17 17 16 16 15 15 14 13 13 12 11 11 11 11 11 11 11 10 10 11 11 11 10 10 9 8 8 7 7 5 4 4 5 6 6 6 5 5 5 4 4 4 4 5 5
3 1 3 2 0 1 2 3 3 2 1 1 2 1 6 7 5 1 3 2 6 10 10 14 23 21 11 12 25 31 31 29 28 27 26 25 26 28 29 29 27 25 24 24 24 24 24 23 22 20 18 17 17 17 16 16 15 14 13 13 13 12 11 11 11 11 11 11 10 10 10 10 10 10 10 10 10 9 8 7 6 6 4 3 4 5 6 6 6 5 4 3 3 3 4 5 5
3 3 4 2 1 1 2 2 3 2 1 2 3 3 5 4 5 3 1 3 7 8 8 18 28 22 14 16 22 30 32 29 30 28 26 23 23 27 27 27 26 24 23 23 24 24 24 23 22 20 18 18 18 18 17 16 14 14 13 13 12 11 11 11 11 11 11 11 10 10 9 9 9 9 10 10 11 10 9 8 7 6 5 4 3 4 5 6 6 5 4 3 2 2 3 4 5
3 4 4 2 1 1 1 3 3 3 2 3 5 5 5 4 7 7 5 5 5 7 10 19 23 15 17 18 18 30 33 31 31 29 25 20 21 22 22 24 24 24 23 23 23 24 23 22 21 20 19 19 19 19 17 16 14 13 13 13 13 12 11 10 10 10 10 10 10 10 10 9 8 8 9 10 10 10 10 10 9 8 6 5 4 3 4 5 5 5 4 3 2 1 2 4 4
3 3 3 2 1 1 1 3 2 1 2 2 5 6 4 4 8 8 7 5 3 6 10 13 9 10 24 25 25 34 33 32 33 30 25 21 21 20 20 21 22 24 23 23 23 23 23 22 21 20 19 19 19 19 17 16 15 14 13 13 13 12 11 10 10 10 10 9 9 9 10 10 9 7 8 9 9 10 10 10 10 9 8 7 7 5 4 4 4 4 4 4 2 1 2 4 4
2 1 2 2 2 3 3 5 4 2 2 2 6 9 4 2 6 6 5 4 3 5 8 8 9 19 26 26 32 35 33 34 34 31 27 25 25 23 21 20 22 24 23 23 23 23 22 21 20 19 20 20 19 18 17 15 15 14 14 13 12 12 11 10 9 9 9 8 8 9 10 10 9 8 7 8 7 8 9 10 10 9 9 8 8 7 5 5 5 4 4 3 2 1 2 4 3
3 0 2 2 2 3 4 5 5 4 3 5 8 10 6 5 6 6 5 4 5 7 8 9 12 17 20 29 36 34 34 35 34 33 30 29 28 26 23 21 23 25 24 23 22 22 22 21 20 20 20 21 20 18 17 15 15 15 14 13 12 12 11 10 9 8 8 7 7 8 8 8 8 8 8 8 7 7 8 10 10 9 9 8 8 8 6 6 6 5 4 2 1 1 2 4 3
5 1 2 2 3 3 4 6 7 6 5 8 9 11 9 10 10 8 4 3 6 7 6 8 10 15 25 34 36 35 36 35 35 34 31 30 28 26 25 21 23 24 24 23 22 22 21 21 20 21 21 21 20 18 17 16 15 15 14 13 12 12 11 11 10 8 8 7 6 6 6 7 8 9 10 10 8 7 8 9 10 8 8 9 8 8 6 7 6 5 4 2 0 1 3 4 3
6 3 1 3 4 3 5 9 9 10 12 12 10 11 10 12 12 8 6 4 5 5 6 7 9 20 34 38 38 38 37 35 35 34 31 28 25 25 24 22 22 23 24 22 22 22 21 21 21 21 21 21 20 19 18 16 16 15 14 13 12 11 10 10 10 9 8 7 6 5 5 6 7 8 9 11 10 7 6 8 10 8 7 8 8 7 6 5 4 3 3 2 1 3 4 4 3
5 6 2 4 6 5 7 11 12 14 18 16 12 11 9 12 11 8 11 7 1 5 11 12 11 22 35 38 39 38 36 36 35 34 32 28 25 23 22 21 19 19 22 22 22 22 21 21 21 22 22 21 20 19 17 16 16 15 14 13 12 11 10 10 10 10 9 7 6 5 4 5 5 6 7 9 11 8 6 7 9 8 6 5 5 5 4 3 3 3 2 1 1 4 5 5 3
4 5 5 9 9 5 9 13 14 16 18 17 13 10 10 12 8 10 13 6 5 12 15 17 15 20 29 35 38 38 37 34 33 35 33 29 26 23 22 19 17 18 20 21 22 21 21 21 21 22 22 21 20 19 16 15 15 15 14 13 12 11 10 10 10 10 9 8 8 6 5 4 4 4 6 7 9 6 5 5 7 8 6 3 2 2 2 1 3 3 3 2 2 3 5 5 4
3 3 6 14 12 7 13 16 15 17 17 15 13 11 14 12 5 12 14 4 9 18 19 21 19 17 24 30 33 36 36 33 32 34 34 31 28 25 23 20 19 19 18 19 20 21 22 22 22 22 22 22 20 19 17 16 15 14 14 14 13 12 10 10 10 10 9 9 9 8 6 5 3 2 3 5 7 4 2 4 5 8 8 6 4 3 2 1 2 2 3 3 3 2 5 5 5
5 2 7 13 13 13 17 18 17 19 18 16 15 14 15 11 6 13 13 5 10 20 21 24 22 18 21 25 27 29 33 33 30 32 34 31 28 26 23 20 20 19 17 17 18 20 22 22 23 23 23 22 21 19 18 16 15 15 15 15 14 12 11 10 9 10 11 10 10 9 7 5 4 3 2 3 5 4 2 4 5 6 7 7 7 4 1 0 1 1 3 4 4 4 5 5 4
6 3 9 11 11 17 19 19 19 18 16 16 16 14 14 15 12 13 11 6 13 22 23 24 23 21 20 21 23 23 27 31 28 30 34 31 28 25 23 22 21 21 19 17 16 17 20 22 23 24 24 23 22 21 20 18 16 16 16 16 15 14 13 12 11 11 12 11 10 9 6 5 4 4 4 3 4 4 5 5 5 6 6 4 5 4 1 1 2 2 4 5 5 5 5 4 4
9 9 12 10 9 17 18 17 20 17 15 16 13 8 12 15 12 7 9 12 17 23 23 22 22 22 21 20 21 19 22 27 25 25 31 31 30 27 24 24 23 24 21 18 17 16 17 19 21 23 23 24 23 22 21 19 18 18 17 16 16 16 15 13 12 12 11 10 9 8 6 4 4 4 5 4 5 6 6 7 6 7 8 4 2 2 2 2 2 4 6 5 6 7 7 6 6
12 13 14 13 12 16 18 16 19 17 14 18 13 6 11 16 9 3 10 16 18 23 23 22 22 22 23 21 21 19 19 23 22 21 25 28 31 29 27 26 26 25 23 21 19 17 17 18 19 20 21 23 24 23 22 21 20 20 18 17 17 16 15 14 13 12 11 10 8 7 6 5 5 5 5 7 8 8 7 7 8 11 12 7 4 4 4 4 4 6 9 8 8 9 10 10 9
15 17 12 9 12 12 14 14 16 14 10 21 17 5 9 13 6 6 16 18 17 21 21 21 23 23 25 23 21 21 20 22 23 20 20 24 28 30 29 28 28 26 26 25 21 19 19 19 19 20 20 20 22 23 23 22 22 21 20 18 17 16 15 14 14 13 11 10 10 9 9 8 8 8 8 9 10 11 11 11 12 14 14 10 8 7 6 6 7 9 12 13 13 12 11 11 10
15 16 10 4 6 6 10 11 15 13 8 22 16 6 5 6 6 14 21 21 17 19 20 20 22 23 24 24 22 22 22 22 25 24 21 23 25 28 29 27 29 30 28 27 24 22 21 20 20 21 21 20 20 21 22 22 22 21 21 19 17 16 16 15 15 14 14 12 13 13 12 11 11 10 10 10 10 10 11 12 14 16 17 15 13 11 9 8 9 11 12 13 14 11 8 7 7
12 7 5 5 5 2 9 10 15 11 8 21 14 5 5 4 9 20 22 22 19 19 20 20 21 23 24 24 23 22 23 23 26 27 24 23 23 27 27 22 25 31 30 28 27 25 23 22 21 21 22 21 20 20 20 20 20 20 21 20 19 17 17 17 17 17 17 16 16 16 16 15 14 13 12 10 9 9 10 11 11 12 15 17 15 13 11 10 11 12 12 13 13 9 7 5 5
8 3 3 4 5 4 9 8 12 6 8 18 9 3 6 4 11 22 23 23 21 20 20 20 21 23 22 22 21 20 22 23 24 26 27 25 22 25 27 21 19 24 30 32 29 27 25 24 23 23 22 22 21 21 21 19 19 18 19 20 20 20 19 19 20 20 20 19 18 18 18 17 15 14 12 10 11 12 12 12 12 11 11 14 14 13 12 11 12 13 13 13 13 9 8 8 7
3 3 1 1 3 4 7 6 11 7 6 12 6 3 4 3 11 21 24 25 22 21 20 19 22 22 21 18 17 18 19 20 22 24 26 27 24 24 26 24 18 18 25 31 31 28 27 25 24 24 23 22 22 22 22 21 19 19 18 19 19 20 20 20 20 20 21 21 19 18 17 17 16 14 13 13 14 14 14 14 14 14 11 11 12 13 14 13 14 14 13 14 13 8 8 9 10
3 4 3 3 3 3 3 5 12 10 4 6 5 4 3 3 11 20 26 27 24 22 20 20 22 21 21 16 13 16 16 17 20 23 25 24 25 24 23 22 19 18 20 25 32 32 29 26 25 25 23 23 22 21 24 24 22 21 19 18 18 19 19 19 18 19 20 19 18 17 17 17 17 15 15 16 16 16 16 16 16 14 13 11 12 14 15 15 14 13 14 15 14 10 8 9 10
4 2 3 4 5 5 4 3 9 10 6 6 4 6 6 5 11 20 25 27 24 21 20 21 22 21 20 17 14 15 15 18 20 21 22 21 22 23 22 20 18 20 20 22 31 34 29 26 26 25 24 24 23 20 23 26 25 24 21 19 19 19 19 18 17 17 18 18 17 16 16 16 17 16 16 17 17 17 16 17 17 15 13 13 13 15 16 15 13 13 16 18 16 13 10 10 11
6 6 4 4 4 5 6 4 8 11 7 7 6 6 7 6 11 18 23 25 22 21 21 21 23 22 20 19 18 17 15 17 18 18 20 19 18 17 19 19 16 20 22 20 29 34 28 25 26 26 26 26 25 22 24 27 27 26 24 22 21 21 20 19 18 18 18 18 18 18 17 16 16 17 18 18 19 19 18 18 19 16 14 14 14 16 17 15 13 13 18 20 17 14 12 12 12
9 11 8 8 6 4 7 5 8 14 8 7 9 7 7 9 10 14 19 23 21 20 20 20 22 22 22 21 20 19 16 16 17 18 19 17 14 13 15 18 17 20 20 17 25 34 29 26 27 27 29 29 26 25 27 29 29 28 27 25 24 24 22 21 20 20 19 19 20 20 19 19 18 19 20 21 22 22 21 21 21 19 17 15 16 17 18 17 13 12 16 19 16 13 12 13 14
8 12 9 10 8 6 9 6 8 14 9 7 10 7 9 12 11 13 18 20 17 17 17 18 21 23 24 24 22 21 18 16 18 17 16 16 16 15 14 17 18 20 20 16 20 28 27 27 30 31 32 31 28 27 29 31 31 30 29 28 27 26 24 23 22 21 21 21 23 22 22 22 21 22 23 23 25 25 23 23 23 23 21 17 16 17 18 19 15 12 15 17 15 14 14 14 15
6 11 9 8 8 8 10 8 8 12 8 6 9 9 10 12 11 13 17 16 14 18 20 19 22 24 26 25 23 23 19 17 18 18 17 18 20 19 16 17 20 19 20 19 17 19 20 23 27 32 34 34 30 28 28 30 31 29 29 28 27 27 25 24 23 22 21 22 24 25 25 25 24 25 24 23 24 25 24 24 26 26 25 22 19 17 19 21 19 16 16 18 18 18 18 17 14
3 7 8 7 6 4 5 5 7 9 5 4 9 11 10 10 10 12 15 16 17 24 27 26 26 25 26 26 24 24 22 19 19 20 21 22 21 20 18 19 20 18 17 19 18 16 16 16 16 23 33 35 31 29 28 29 29 29 29 28 27 26 26 25 25 24 22 23 24 25 27 28 29 29 29 27 26 26 26 26 28 28 28 26 23 20 19 22 23 21 19 19 20 21 22 20 16
1 6 7 5 7 5 3 5 8 9 4 5 9 7 5 6 6 7 14 19 20 25 28 28 30 29 28 28 26 26 25 24 22 20 22 24 23 22 21 20 20 20 18 18 19 18 17 16 12 14 24 31 30 28 27 27 28 30 30 30 28 27 27 27 26 26 25 24 24 24 25 27 29 31 31 31 30 30 29 30 31 31 31 29 26 22 20 22 25 25 23 21 21 22 22 21 18
2 4 7 7 11 9 7 5 7 7 2 6 9 5 1 6 6 6 10 11 14 21 24 23 27 30 29 28 27 27 26 25 24 21 22 24 25 24 23 22 21 22 22 20 20 20 20 19 17 14 16 21 23 23 23 24 26 29 30 30 29 28 28 28 29 28 27 26 26 26 26 26 28 30 31 31 31 30 31 31 32 32 31 29 25 23 21 21 23 25 25 23 22 23 22 22 21
4 1 7 12 15 11 6 9 9 6 2 6 9 6 2 4 6 9 6 5 9 15 18 19 24 25 25 27 27 28 26 23 21 19 21 22 22 22 21 20 19 21 24 24 22 22 22 21 21 19 18 18 19 19 19 20 22 25 27 29 29 28 29 29 30 29 28 28 28 29 29 28 28 30 31 32 32 32 32 31 31 31 29 27 25 24 22 22 24 24 24 23 22 23 23 24 23
3 3 6 10 14 10 9 11 10 6 4 8 9 6 4 3 5 9 7 8 10 11 12 16 23 23 24 29 29 28 25 23 21 18 18 19 18 18 17 16 16 17 20 22 23 23 22 21 21 21 21 22 21 21 21 21 21 22 24 26 26 27 28 29 30 30 30 31 31 32 32 31 31 32 33 34 34 34 33 31 30 30 28 26 25 25 24 23 24 25 24 23 23 23 23 24 23
2 6 4 7 9 10 11 11 8 4 3 6 5 3 5 5 5 7 9 11 10 9 9 12 19 24 26 30 29 27 25 23 22 20 18 19 17 16 15 13 12 12 13 16 18 18 17 16 15 15 16 18 20 22 23 24 25 25 26 28 29 30 32 33 33 33 34 35 35 35 35 35 35 34 35 36 36 35 34 32 30 29 28 27 26 26 25 24 24 26 26 24 23 22 22 22 20
6 7 4 5 7 8 11 10 6 3 4 5 5 2 5 3 3 5 9 10 10 11 11 10 16 23 26 29 30 28 26 23 22 21 20 18 16 14 12 10 9 9 9 11 11 10 9 9 9 9 10 12 15 17 20 23 25 27 28 29 30 31 31 30 30 31 32 33 34 35 35 36 36 35 36 36 35 35 34 32 31 30 30 30 28 27 26 25 24 25 26 26 24 22 21 22 20
6 6 2 2 1 2 5 7 5 2 3 6 9 6 4 2 2 5 7 9 11 12 11 11 17 24 26 29 30 28 26 24 22 20 19 17 14 12 11 10 9 9 8 7 8 9 9 10 11 11 11 11 12 14 16 19 21 23 24 25 25 25 24 24 25 26 28 29 32 33 33 34 34 34 34 35 35 34 33 33 33 33 33 32 30 27 26 26 25 25 25 26 25 22 21 22 22
3 1 2 5 4 3 3 2 4 3 2 6 11 10 6 2 4 6 8 11 14 12 8 9 14 20 25 28 29 28 27 25 23 20 18 15 13 12 11 10 9 9 9 9 10 11 12 13 12 12 12 13 14 14 15 16 17 19 21 22 23 24 24 24 26 27 27 28 30 31 32 33 33 33 32 32 32 32 32 32 33 33 32 31 30 28 27 27 27 26 25 25 26 25 23 23 24
3 4 3 4 4 5 5 4 3 3 5 6 10 13 9 5 6 9 11 9 11 13 10 11 13 17 25 27 28 28 27 26 22 19 17 14 13 13 12 10 8 9 9 9 10 12 13 12 11 10 11 13 14 15 16 17 18 19 21 22 23 24 25 26 27 27 27 27 28 29 30 32 33 33 32 32 31 30 30 31 31 32 31 31 31 30 29 28 28 27 25 24 25 26 26 25 25
5 4 5 4 3 3 2 3 1 3 7 5 8 12 6 4 5 10 14 8 9 14 14 16 17 20 26 27 27 27 26 25 20 17 16 13 13 14 12 10 9 8 8 8 8 8 8 9 9 9 9 10 12 14 17 18 18 19 19 20 21 23 24 25 25 25 26 26 26 27 27 28 30 30 30 31 30 29 29 30 31 31 32 32 31 31 30 30 29 28 26 25 25 27 28 28 26
3 1 3 4 1 1 1 4 1 1 6 4 5 7 1 4 4 6 12 9 12 17 18 22 25 26 28 28 27 26 25 24 19 16 14 11 11 12 12 11 10 7 5 6 7 7 6 6 7 8 9 9 12 15 17 17 16 16 16 17 20 22 23 24 25 25 26 26 27 28 28 28 28 28 28 27 26 26 27 28 29 30 31 32 32 32 32 32 31 29 28 27 27 27 29 30 28
1 3 5 4 3 4 3 3 2 3 4 5 3 3 1 2 4 4 9 11 15 20 20 23 26 28 29 26 24 25 25 23 19 15 13 11 9 10 11 11 10 7 5 6 7 8 8 7 7 8 9 11 13 14 15 15 15 15 15 17 19 21 23 24 25 26 27 27 27 29 29 29 29 29 28 27 26 26 28 28 28 28 29 30 32 33 34 34 34 33 31 29 29 28 27 29 31
3 1 5 1 4 5 2 3 4 4 1 4 3 1 1 3 4 4 8 13 13 18 19 20 21 24 26 23 22 25 26 23 19 16 14 12 11 12 12 10 8 7 7 7 8 8 8 8 9 10 12 13 14 15 16 17 17 18 18 19 21 22 24 26 28 28 28 27 27 28 29 30 31 30 30 29 28 28 29 29 29 29 28 28 30 32 34 35 36 35 33 31 31 30 27 28 30
1 2 2 4 5 7 3 1 1 3 3 2 0 2 1 1 4 5 8 11 9 11 14 16 19 21 23 22 23 25 26 24 20 17 17 16 14 13 12 9 8 7 7 8 8 7 7 9 9 10 11 12 13 15 17 18 20 21 21 22 23 25 27 28 29 29 28 27 26 27 29 30 31 31 30 30 29 29 29 31 32 32 31 30 29 31 33 35 36 35 34 32 32 31 29 28 29
3 1 4 3 1 4 3 1 3 4 3 1 0 4 3 2 1 2 5 9 7 7 9 12 16 19 20 21 24 25 25 24 20 18 18 17 14 12 10 10 10 9 9 10 11 10 10 10 10 11 12 13 15 17 18 20 22 23 24 25 26 27 28 28 27 27 28 29 29 30 32 33 32 31 30 30 30 29 29 30 32 33 33 33 31 30 31 33 35 36 35 33 32 32 32 30 29
4 3 4 2 2 1 2 1 0 1 1 0 3 1 2 3 3 4 6 9 9 7 8 9 12 16 17 19 23 25 24 23 19 16 16 15 13 13 13 13 12 11 11 12 12 12 12 12 13 14 15 17 19 20 21 22 22 24 25 26 27 28 27 26 25 26 27 28 30 31 32 34 34 34 32 30 28 26 27 29 31 32 33 34 34 33 32 31 33 35 36 35 34 33 34 33 31
3 3 2 2 3 3 1 0 2 2 1 1 1 3 2 3 5 8 10 10 11 9 8 9 12 17 17 19 23 25 24 22 18 15 14 13 14 14 14 13 12 12 12 12 11 11 12 13 14 16 18 20 22 23 23 23 23 23 24 26 26 26 25 25 25 25 25 26 27 28 29 30 31 32 31 29 27 26 26 27 29 31 32 34 35 35 35 34 33 34 35 36 35 34 34 34 33
3 4 3 2 1 1 1 1 1 3 2 3 3 2 4 4 4 7 10 10 10 11 9 8 11 16 18 20 24 25 23 20 17 15 13 11 12 13 12 11 10 10 11 11 11 12 14 15 17 19 20 22 23 23 23 22 22 22 23 24 24 24 24 24 23 23 23 24 25 26 27 27 28 29 29 28 27 26 26 27 27 28 30 32 34 35 36 37 35 34 34 34 34 35 36 36 36
6 4 3 3 2 2 3 2 4 1 4 4 4 3 5 5 2 6 8 8 8 10 10 8 10 18 20 22 25 25 22 20 17 14 11 9 10 11 10 9 9 9 10 11 12 14 15 15 16 17 19 20 20 20 19 19 20 22 23 23 23 23 22 22 22 22 22 23 24 24 25 26 27 27 27 28 27 26 26 27 27 27 27 29 32 33 35 37 37 36 35 34 33 34 36 37 37
Wind_Direction
155 160 164 168 177 172 166 165 127 25 143 100 180 218 255 235 276 264 148 144 117 201 171 156 164 162 157 176 176 134 116 160 176 160 187 157 152 157 160 167 170 169 166 163 166 163 165 166 162 160 153 149 148 148 147 148 149 151 150 149 147 145 144 142 146 145 146 145 143 142 141 143 146 147 140 135 135 137 137 135 135 136 135 125 116 116 115 110 107 107 108 107 103 102 108 125 152
158 165 167 163 174 175 168 169 99 100 99 335 208 91 305 315 263 236 180 163 138 175 166 156 164 174 172 153 174 135 107 190 223 154 127 145 151 157 162 167 169 168 166 164 165 163 166 165 161 158 152 150 149 151 150 149 148 149 150 149 148 147 146 147 151 151 151 151 149 148 148 153 155 156 152 144 137 133 131 129 131 132 130 123 118 119 120 115 108 107 111 109 105 101 101 105 115
169 167 173 166 160 161 152 131 63 120 107 201 154 65 292 300 250 263 217 189 138 156 155 154 163 181 171 141 211 208 115 158 171 141 131 151 154 158 164 168 170 168 166 164 163 165 165 162 160 157 151 151 150 152 151 149 150 151 152 151 150 152 153 154 157 156 155 154 154 156 155 155 156 157 156 155 148 134 124 121 124 126 124 119 116 120 120 115 109 109 110 107 104 99 96 92 90
171 166 178 170 145 142 134 110 152 158 128 174 102 102 269 307 273 297 247 209 152 154 152 154 164 183 175 158 190 130 115 142 149 142 142 159 157 156 164 168 170 169 168 164 163 165 162 160 160 157 152 153 151 150 149 150 153 154 155 155 154 156 159 160 158 155 152 150 151 155 154 150 153 155 152 153 151 141 128 120 118 118 120 118 116 122 122 117 112 110 107 104 100 95 91 87 84
159 172 187 185 156 144 135 127 149 135 157 181 136 132 135 355 307 323 294 266 234 185 166 167 168 174 169 169 181 132 138 148 148 148 149 160 157 155 163 167 170 170 169 165 164 163 160 161 160 156 154 154 152 150 150 152 154 155 157 156 157 158 159 157 153 150 147 146 145 148 149 148 156 162 160 158 154 144 136 125 118 116 117 117 118 122 124 120 116 111 107 104 98 93 89 84 80
156 169 179 186 186 163 123 95 86 103 180 300 121 111 114 114 323 355 323 306 263 213 173 167 148 132 138 143 152 137 144 146 150 155 152 156 158 157 161 166 169 169 168 165 164 163 160 161 159 156 155 155 153 152 153 154 156 158 159 158 157 157 154 151 150 149 145 140 140 146 148 147 152 158 157 153 151 146 143 133 124 122 120 119 121 124 126 124 123 118 112 105 97 92 86 80 72
163 169 166 165 185 158 90 106 115 121 55 14 66 53 20 6 3 66 347 320 264 194 146 143 132 115 101 110 114 128 141 146 150 153 153 154 157 158 161 166 169 169 168 165 163 162 161 161 159 156 155 155 153 154 154 155 155 157 159 157 155 153 150 148 148 146 143 140 138 138 135 130 128 127 125 126 132 136 139 135 130 128 123 123 126 127 127 126 125 120 113 106 99 93 85 79 67
170 205 178 152 91 56 70 97 90 68 63 47 73 67 43 36 22 32 57 324 267 134 122 132 120 103 117 122 112 131 141 152 152 153 152 151 155 158 163 167 168 168 167 164 162 163 162 160 158 154 154 155 154 154 154 153 152 154 154 153 152 150 148 146 145 145 144 139 130 122 116 112 108 104 102 106 113 120 125 130 131 131 127 127 129 128 128 126 123 116 111 107 103 99 91 84 73
280 250 197 133 68 58 73 42 53 66 50 56 64 90 94 85 64 356 109 228 249 105 113 136 120 107 134 123 117 132 140 164 158 150 149 148 154 159 166 169 168 168 165 163 162 164 163 160 156 153 156 155 155 155 154 153 153 153 153 152 150 147 146 144 143 143 138 129 120 112 106 102 99 98 100 102 102 106 113 122 127 130 131 130 132 131 129 127 121 114 110 109 105 98 89 83 80
229 251 185 112 79 59 52 29 49 61 23 38 77 48 65 90 101 138 211 234 223 95 104 127 118 116 130 120 123 135 144 163 156 150 151 151 157 162 166 168 168 167 163 162 162 164 163 159 156 156 159 157 158 158 156 154 153 153 154 153 147 146 146 144 144 139 130 120 114 109 103 100 96 95 94 95 94 97 101 111 124 128 132 132 135 133 131 128 119 113 111 110 103 95 88 77 73
219 277 124 76 65 55 42 54 58 61 301 255 78 37 56 99 116 154 214 295 84 98 107 115 107 117 121 108 123 141 151 159 156 152 154 155 160 164 165 166 168 168 164 162 162 165 163 160 158 160 162 159 161 161 157 154 152 152 152 151 146 147 146 142 140 133 125 116 113 108 103 101 96 93 89 89 89 92 94 99 109 119 131 135 136 135 135 128 118 113 112 109 98 91 84 66 57
230 323 94 73 61 73 64 68 75 116 234 233 220 72 107 122 130 165 293 325 78 92 102 114 122 123 110 100 128 143 150 154 156 153 157 162 163 164 164 165 168 169 166 163 163 165 165 163 161 163 163 161 163 160 157 154 152 151 149 149 146 146 143 140 136 130 124 116 114 109 107 103 98 93 86 85 85 87 91 92 93 99 120 137 140 139 141 135 125 116 114 112 98 87 72 56 46
219 133 88 79 154 97 79 82 118 176 260 241 229 151 125 135 140 180 312 341 65 76 95 119 130 124 106 122 135 144 148 152 155 154 163 166 163 163 164 166 168 168 167 166 165 166 167 165 163 165 164 162 162 159 158 155 151 151 148 148 145 143 140 138 137 132 125 119 116 113 109 104 100 94 87 84 81 82 86 86 84 86 98 122 144 146 146 146 139 129 125 122 110 91 65 46 38
198 137 97 117 180 111 102 141 174 166 274 237 220 165 131 141 137 142 263 49 52 75 107 126 130 119 115 130 138 147 149 155 156 157 166 165 162 161 163 166 168 169 169 169 168 168 168 167 166 166 166 165 163 160 159 157 153 152 151 149 144 142 140 138 137 133 129 124 120 116 109 105 101 93 88 84 79 79 81 82 80 80 80 84 118 149 152 154 153 146 141 144 137 101 56 39 36
169 129 104 120 122 101 172 200 171 144 207 203 204 172 121 124 137 130 107 76 59 89 109 130 130 121 142 148 152 154 152 157 157 160 167 164 162 161 162 166 169 171 172 173 171 171 170 170 170 169 169 167 165 162 160 158 155 155 154 152 146 145 142 138 135 133 131 127 121 118 112 108 102 95 91 86 83 82 80 80 79 78 76 71 75 114 152 157 160 159 154 161 178 132 49 33 38
176 117 94 99 122 156 182 179 150 141 227 203 189 166 102 103 139 132 104 85 82 100 119 135 130 148 158 154 155 155 154 159 158 162 167 163 164 164 164 167 171 175 175 176 175 175 174 173 173 172 171 169 167 164 162 161 158 159 159 156 151 150 147 141 137 135 133 128 122 118 115 113 108 104 98 91 87 84 81 79 81 80 76 75 73 83 124 144 150 159 163 172 202 227 23 17 29
202 68 77 97 154 180 163 171 176 172 190 180 181 169 125 92 146 143 115 106 96 105 133 139 130 148 157 155 155 154 154 159 159 163 166 163 166 166 166 170 173 177 179 179 179 178 177 177 176 175 173 171 170 166 164 164 163 164 163 161 158 156 153 149 145 141 137 130 124 120 117 116 116 116 106 96 92 89 82 78 82 82 76 77 77 79 102 128 135 140 155 182 213 255 349 356 7
183 78 96 129 172 186 177 182 168 132 149 172 186 183 153 131 159 151 112 103 106 114 130 134 134 148 159 157 156 154 155 160 161 164 166 165 169 168 168 172 175 179 179 180 181 181 181 180 178 178 176 173 173 171 168 169 169 169 167 166 165 163 160 157 157 152 146 139 131 124 120 120 120 116 102 89 93 96 85 78 79 81 79 77 76 74 92 118 118 116 121 145 180 69 8 355 357
188 163 88 186 187 176 167 149 144 141 151 160 174 181 156 143 155 145 115 97 115 111 115 131 132 143 154 157 158 156 157 161 163 167 169 169 172 171 171 172 177 181 180 181 181 183 183 182 182 181 179 177 177 175 175 175 175 174 173 172 171 169 167 164 165 165 159 152 145 136 130 131 123 109 93 78 82 93 84 76 73 81 84 78 77 72 91 121 118 110 99 86 2 305 335 344 355
205 172 95 239 177 131 159 142 148 160 146 144 158 168 158 150 150 137 132 122 122 130 136 144 130 140 152 158 160 159 160 163 165 170 173 173 177 178 177 174 178 183 182 182 182 184 185 185 185 184 183 182 181 181 181 181 180 180 178 178 178 175 175 173 171 173 174 167 159 154 147 141 133 114 93 73 70 74 70 69 66 77 90 79 75 70 86 122 137 127 97 82 338 301 301 311 336
187 173 184 213 154 122 176 153 143 153 144 142 146 151 158 157 155 145 139 124 141 186 163 157 137 142 153 159 162 162 163 166 168 172 175 177 180 183 185 182 182 186 185 184 185 186 186 188 189 187 188 188 186 187 187 185 185 185 184 183 186 184 185 186 181 181 184 185 179 176 168 157 149 130 107 74 63 57 45 52 52 56 77 77 71 71 78 113 162 175 143 110 353 322 310 298 295
175 203 184 166 156 129 175 160 145 152 143 140 140 146 161 159 166 168 154 145 198 183 167 161 147 142 154 160 164 166 167 170 173 175 177 179 181 186 190 190 186 185 188 189 189 189 188 190 192 192 192 193 194 193 192 191 192 192 191 190 191 193 195 196 194 193 193 195 198 199 186 169 167 146 127 92 70 60 32 30 34 31 34 34 41 56 33 93 157 189 182 193 312 330 327 306 278
195 226 175 163 162 141 166 164 156 158 145 143 151 154 156 154 182 185 176 188 186 176 167 165 161 149 152 159 165 168 171 174 176 177 179 180 183 187 191 194 194 191 192 194 195 193 193 193 194 198 198 199 200 199 199 197 198 199 199 200 201 202 205 207 205 201 201 201 204 208 199 181 187 185 149 120 97 93 26 351 8 16 20 17 0 354 349 55 132 184 208 243 278 296 319 310 283
195 190 178 173 159 147 162 163 159 163 158 156 155 149 156 165 177 183 194 220 177 172 167 167 172 168 157 160 166 171 175 178 180 181 182 184 186 189 194 200 203 204 202 201 202 198 198 199 198 202 203 205 206 204 205 204 203 204 206 208 209 210 214 217 213 205 206 207 208 211 211 203 202 228 215 141 119 130 190 288 323 346 4 21 10 358 343 342 28 312 260 250 243 266 304 313 293
216 192 174 178 158 153 162 162 161 167 166 160 153 154 171 176 164 173 199 191 164 168 168 169 176 181 173 168 171 172 177 181 184 183 183 188 190 191 196 201 204 207 207 209 214 210 205 204 204 207 208 211 212 209 209 208 208 210 214 215 215 218 218 216 214 210 211 211 208 208 213 217 213 222 228 176 150 172 201 241 276 306 318 1 13 357 298 277 355 316 273 241 230 264 294 297 289
212 188 162 168 163 157 160 162 166 170 170 163 155 167 181 171 154 162 182 158 159 168 169 171 175 184 185 181 182 179 180 182 183 183 185 188 190 192 195 199 203 204 207 212 220 223 217 212 212 213 215 218 219 217 214 213 214 217 221 222 221 224 222 218 217 218 219 221 214 206 202 204 212 225 230 214 204 216 221 228 238 266 278 284 336 322 272 282 315 295 286 263 241 260 275 273 280
187 162 148 160 163 157 159 166 174 174 173 172 165 179 189 173 151 144 167 156 160 168 170 175 177 184 187 188 190 191 189 187 186 184 184 186 188 193 195 198 203 205 207 210 219 226 223 222 221 221 224 225 225 226 224 222 221 223 225 225 225 226 228 227 228 229 229 234 232 225 223 215 217 232 239 229 229 242 247 240 236 250 262 265 273 264 248 267 283 292 298 294 278 273 268 263 267
155 137 121 150 152 146 159 166 179 178 180 185 175 157 179 176 172 170 167 164 165 168 171 179 183 186 188 190 195 198 199 197 197 193 188 186 186 192 198 201 204 206 208 211 220 222 220 224 226 227 230 231 230 231 231 230 229 229 229 228 228 228 231 234 237 242 244 248 250 247 246 243 241 242 246 244 246 254 258 255 251 256 262 259 263 260 249 256 265 286 293 293 293 287 267 252 255
137 128 109 125 118 128 167 165 182 186 190 185 165 99 163 186 189 171 167 170 168 165 169 179 187 190 190 192 196 200 203 204 207 207 198 189 188 191 196 204 208 207 210 215 219 218 219 222 226 228 230 234 235 234 235 236 237 238 237 236 235 234 235 239 242 246 253 257 258 257 254 255 259 258 261 265 266 266 261 264 264 264 261 257 262 254 245 255 263 277 282 287 293 281 257 247 246
139 123 107 131 99 157 189 172 180 187 190 178 152 93 204 230 175 166 167 172 168 163 168 177 186 191 192 194 198 202 205 208 210 210 204 194 192 193 194 202 210 211 211 213 215 217 219 219 223 225 227 232 234 234 236 239 243 245 247 245 243 241 241 243 244 245 249 253 255 258 258 257 262 266 269 275 276 274 270 275 283 277 260 253 257 245 237 251 259 267 273 288 296 269 241 249 245
140 81 33 125 119 210 208 182 170 170 200 183 145 89 206 227 171 165 168 174 170 165 170 178 183 187 191 193 198 203 205 209 210 209 205 201 200 199 201 205 214 220 216 214 216 218 218 217 219 222 226 231 231 232 234 239 244 247 251 251 249 248 248 248 248 247 246 248 251 254 257 258 262 266 269 274 276 276 276 279 291 299 277 252 247 235 228 236 244 255 265 287 297 264 237 249 249
130 122 355 120 125 201 219 200 176 165 200 184 130 94 202 221 181 169 170 174 171 169 172 179 182 187 193 194 197 198 201 207 209 209 206 206 208 206 210 213 220 230 223 218 219 218 217 215 217 221 227 229 229 232 234 237 242 246 252 254 253 252 252 253 252 251 246 244 248 252 256 257 260 263 264 270 273 274 275 278 286 297 293 264 246 231 224 230 241 254 261 278 292 266 241 252 252
192 167 170 180 147 179 217 219 196 171 157 184 133 130 191 223 188 174 173 175 172 170 173 179 184 189 194 195 195 192 195 201 202 202 203 206 210 210 216 218 217 226 231 230 225 219 215 214 216 221 228 228 227 233 234 235 239 243 249 251 253 253 254 257 256 253 247 243 247 252 256 257 258 261 262 265 268 271 272 274 280 289 291 275 252 233 227 234 245 258 261 268 281 271 249 253 255
212 173 128 185 181 166 177 216 201 170 154 194 155 152 189 190 180 177 178 179 175 173 174 180 186 188 193 195 193 190 192 195 193 192 195 199 204 209 213 215 217 221 230 237 227 219 214 214 217 221 230 230 227 233 234 234 237 240 246 250 251 254 256 260 260 256 250 248 251 254 258 258 257 258 259 261 264 269 269 269 274 283 287 278 258 237 230 239 247 258 261 263 272 271 259 258 263
181 178 136 176 191 176 195 197 179 166 164 189 171 180 200 177 173 181 184 182 177 178 179 184 189 191 195 196 192 190 190 193 191 185 185 187 194 208 212 214 220 214 219 232 225 218 215 217 220 223 229 229 227 235 236 234 235 237 243 245 246 250 254 257 259 259 256 253 253 258 262 259 258 258 258 258 259 264 266 268 272 279 281 278 265 241 230 240 248 251 255 258 266 269 265 263 265
183 179 158 160 180 203 215 206 170 162 156 186 188 188 184 173 181 186 186 184 180 181 183 186 192 195 195 194 192 191 192 193 186 180 183 185 194 213 218 222 223 210 214 226 216 213 214 219 225 225 227 227 227 233 234 232 232 234 238 238 240 244 248 251 256 261 260 255 254 258 261 260 261 263 263 259 256 259 265 270 274 277 278 275 267 247 232 236 244 247 252 256 261 263 263 264 268
175 160 158 158 172 205 215 213 181 162 151 195 197 183 178 179 188 186 181 181 178 179 184 186 190 194 195 195 194 193 194 190 183 182 187 192 198 204 207 214 214 208 213 216 205 209 217 223 226 225 224 224 226 230 232 231 230 232 235 235 239 243 245 248 253 259 259 257 255 255 258 259 260 262 264 260 255 257 264 270 275 276 276 273 268 254 238 234 234 239 249 254 256 258 259 261 265
130 145 156 156 177 209 212 200 179 165 158 193 186 175 187 186 187 186 176 176 181 182 185 188 189 192 195 197 199 199 198 192 187 193 197 197 201 204 201 201 201 203 210 209 203 210 220 223 224 224 224 223 225 230 233 233 234 235 238 240 243 245 247 249 252 256 256 256 255 253 255 255 256 259 262 260 255 257 263 269 273 275 276 273 270 262 246 235 231 230 239 250 254 258 261 261 261
89 134 140 159 193 211 229 208 171 167 169 186 177 176 193 190 183 185 179 178 187 187 186 187 187 186 191 195 198 199 199 195 196 202 202 200 204 209 208 204 204 204 208 209 205 205 209 213 215 220 223 223 224 229 232 235 237 239 241 243 245 246 247 249 252 253 251 252 252 251 251 251 254 257 260 261 259 261 266 270 274 276 276 274 271 266 253 239 235 232 235 248 255 259 261 260 259
228 133 130 176 200 173 218 225 179 176 176 162 165 165 185 183 173 190 191 185 187 190 189 188 186 186 190 194 195 196 198 199 203 206 204 204 208 213 214 211 211 211 212 214 213 211 209 210 208 210 218 221 223 227 230 234 237 239 240 240 242 244 246 249 250 250 249 250 252 252 251 250 251 253 256 259 261 264 270 273 275 275 274 273 270 267 258 243 237 237 238 246 254 258 258 259 261
284 138 138 173 197 193 196 183 160 169 150 136 136 97 143 179 169 194 201 193 189 189 188 187 189 191 191 193 195 197 201 203 205 204 201 204 209 213 217 217 218 219 217 217 220 223 223 221 219 216 217 221 225 229 230 232 235 237 238 238 239 242 245 249 250 252 253 254 256 259 260 259 255 253 254 256 260 265 270 272 272 271 270 268 266 266 261 248 240 239 240 243 251 257 259 264 267
329 192 169 177 190 198 172 137 135 151 172 172 148 111 223 211 183 191 190 191 196 188 184 187 190 191 189 190 194 198 203 205 202 198 196 200 206 210 215 217 218 220 219 220 224 227 231 233 234 235 234 233 232 233 233 233 235 236 237 238 240 244 248 251 255 258 260 261 262 264 264 265 262 257 254 256 261 266 270 272 269 266 265 264 264 265 264 255 244 241 241 240 246 255 260 268 268
333 238 188 175 179 180 160 143 145 164 192 195 175 136 172 213 200 196 180 180 197 192 187 190 188 188 188 190 194 198 202 203 198 194 193 195 199 202 205 204 205 212 216 220 226 230 234 237 242 245 246 247 244 240 239 237 237 238 238 240 243 248 251 255 261 264 266 267 268 265 263 264 264 262 259 259 264 267 269 270 267 263 262 263 263 263 263 260 249 243 243 241 242 250 258 265 263
249 243 180 149 156 158 161 156 164 186 151 174 194 112 139 194 210 192 176 178 195 201 197 197 190 188 190 192 194 195 197 199 197 194 193 193 194 196 196 194 194 197 202 210 216 222 225 226 231 239 244 249 249 247 246 245 245 246 248 251 255 258 262 266 269 271 271 272 271 269 267 267 266 265 264 264 266 267 268 268 265 262 264 265 263 261 262 262 255 246 243 242 242 247 254 261 261
226 234 181 151 156 153 155 160 181 184 117 156 209 122 123 215 223 165 172 178 194 207 202 202 196 191 191 193 194 193 194 197 198 197 198 197 198 199 197 198 200 199 200 207 212 217 227 230 231 238 246 247 246 245 247 249 252 254 257 259 262 265 268 272 275 275 275 274 273 272 271 270 269 267 265 265 267 267 267 268 266 264 266 266 263 261 260 261 257 248 243 241 242 246 251 258 261
223 216 159 82 131 164 145 154 165 125 116 182 200 168 121 223 221 151 173 192 200 207 203 201 199 194 192 192 193 194 195 198 200 201 202 202 205 202 196 201 212 214 216 226 237 247 256 261 259 259 262 260 252 246 243 245 248 251 255 258 263 268 272 277 280 280 279 278 277 276 276 276 274 272 270 268 268 268 268 268 267 266 266 264 260 260 260 259 256 249 245 241 241 245 250 257 261
206 137 54 26 11 1 38 96 107 100 260 224 194 173 129 160 219 184 191 202 194 188 189 198 200 195 192 192 192 193 196 199 200 201 202 204 207 205 199 203 212 220 228 236 245 252 256 262 265 263 264 266 265 262 257 254 252 253 256 260 266 273 281 286 287 286 286 284 282 281 282 282 281 279 278 276 274 272 269 268 267 268 266 261 258 259 261 261 257 252 249 245 243 244 247 253 258
113 81 69 36 352 6 19 357 44 118 258 260 186 169 147 159 219 213 210 208 183 176 181 187 190 193 191 190 191 194 194 196 197 196 196 200 203 205 204 209 218 223 229 236 241 247 249 252 256 258 260 260 263 267 266 264 263 264 266 269 274 281 287 290 289 289 289 288 288 287 286 284 283 282 281 280 278 275 271 269 269 268 265 262 260 261 263 263 260 256 253 249 244 241 242 248 253
71 64 72 65 333 357 15 274 252 185 253 268 162 155 162 212 231 207 202 200 178 181 181 177 179 185 187 187 190 193 193 192 191 186 187 195 201 202 205 211 221 224 226 231 235 241 245 246 251 260 264 258 257 261 262 263 264 267 271 277 282 286 289 289 290 291 291 293 293 292 291 288 286 285 284 283 282 278 274 272 271 270 267 266 265 264 264 264 261 256 255 253 245 240 240 243 248
72 99 110 100 132 101 251 250 248 226 270 301 124 126 138 280 291 208 192 183 174 179 178 174 176 180 182 184 187 188 188 188 184 179 181 187 190 197 206 211 215 220 221 225 230 238 245 247 253 266 269 259 256 259 261 263 264 267 273 278 282 285 286 289 290 291 293 295 296 295 294 292 290 289 289 289 290 286 281 278 274 272 269 268 266 265 264 264 261 257 257 256 250 244 242 243 246
192 189 134 127 161 156 196 205 161 215 260 322 31 73 98 224 291 256 170 150 157 168 172 171 173 176 176 178 182 183 184 184 183 181 183 182 180 193 205 207 211 219 222 229 236 238 240 240 245 259 266 265 267 268 270 273 273 275 278 278 281 283 285 289 290 291 293 294 296 296 295 294 292 291 291 292 292 290 287 284 279 275 271 268 266 264 262 260 259 257 258 258 255 251 246 244 243
267 169 87 86 189 150 151 185 180 184 208 346 8 23 237 198 314 343 119 129 147 156 160 164 164 169 171 171 176 182 184 184 184 185 183 180 181 189 194 197 210 228 239 244 237 228 230 239 247 258 267 271 275 277 279 283 284 283 280 278 280 281 284 287 288 289 291 293 294 293 292 291 289 289 289 289 289 289 288 286 283 278 273 269 265 263 260 257 255 255 256 256 255 253 249 245 242
269 62 109 247 184 134 116 255 293 77 89 340 24 112 312 342 350 2 104 124 137 140 150 162 162 166 172 171 174 180 182 182 184 184 180 181 185 189 197 210 220 228 233 228 217 216 232 244 250 259 264 266 270 273 276 279 280 281 280 279 280 281 283 285 285 285 286 288 288 286 286 288 287 285 285 285 283 283 284 284 282 280 276 272 266 262 259 255 253 253 253 252 252 251 249 245 242
125 164 209 246 64 99 103 108 354 33 90 277 1 143 176 149 4 327 114 126 138 142 151 161 164 169 175 177 178 179 179 179 178 176 178 184 192 196 209 220 218 215 215 212 216 230 240 245 250 257 262 267 273 277 278 278 278 280 281 282 282 283 284 285 284 282 280 280 280 279 281 285 288 289 290 288 284 281 282 281 279 277 276 273 269 264 259 255 252 251 251 250 250 250 249 245 242
136 182 182 101 66 337 356 98 164 32 117 266 9 13 188 164 175 185 159 151 156 161 158 157 169 178 181 184 184 179 177 177 172 172 182 191 197 201 205 209 207 206 208 211 221 233 240 247 255 262 269 275 277 278 278 277 277 278 279 281 283 284 285 286 284 283 281 280 279 278 279 281 284 287 289 289 289 287 286 283 278 274 273 272 270 267 262 257 253 251 250 250 250 248 247 246 244
38 50 22 53 142 170 216 180 155 138 159 131 54 330 275 221 204 186 181 176 165 164 168 169 178 181 179 183 182 177 174 174 173 178 188 193 196 198 201 205 209 210 213 219 227 238 248 259 266 274 280 282 279 279 280 280 280 279 278 279 280 283 284 285 286 286 285 283 282 281 281 281 282 283 285 286 287 288 288 287 281 273 270 269 268 266 264 260 256 252 250 249 249 247 245 246 245
59 53 20 5 23 104 131 7 66 120 128 131 136 245 262 252 218 184 185 184 173 171 174 182 183 173 168 169 171 172 169 167 170 174 175 178 187 192 198 205 210 217 227 238 247 258 269 276 282 288 289 288 286 285 284 282 280 281 281 281 282 284 285 286 288 290 289 288 287 285 284 284 284 283 285 286 287 286 286 286 284 277 271 269 266 264 261 259 256 254 252 250 248 246 245 246 245
132 133 167 158 101 84 99 339 316 85 118 140 145 193 259 261 213 182 187 184 180 174 168 176 176 163 158 157 157 160 159 158 163 164 159 164 177 187 198 208 221 238 251 259 266 275 283 290 298 303 304 305 303 299 294 292 293 293 292 290 289 287 286 287 290 292 295 295 294 291 289 287 285 284 284 285 285 286 284 283 283 282 278 275 270 265 260 257 255 254 254 253 251 248 247 247 246